DW9882 Weather Reports


Display with metric or nautical units.
time (UTC)temp
F
wind
direction
speed
MPH
gust
MPH
rain 1hr
in
rain 24hr
in
rain mn
in
humidity
%
barometer
mb
20260904180205 88 124 1.0 3.0 0.00 0.00 0.00 22 1018.6
20260904175205 87 149 1.0 6.0 0.00 0.00 0.00 21 1018.7
20260904174705 87 138 2.0 8.0 0.00 0.00 0.00 22 1018.7
20260904173704 87 168 2.0 6.0 0.00 0.00 0.00 24 1018.7
20260904173205 86 187 2.0 7.0 0.00 0.00 0.00 25 1018.7
20260904172705 86 114 2.0 6.0 0.00 0.00 0.00 25 1018.7
20260904172204 86 141 1.0 3.0 0.00 0.00 0.00 26 1018.7
20260904171705 86 123 1.0 3.0 0.00 0.00 0.00 25 1018.7
20260904170705 85 131 2.0 7.0 0.00 0.00 0.00 25 1018.8
20260904170205 85 145 2.0 5.0 0.00 0.00 0.00 25 1018.8
20260904164705 84 157 1.0 3.0 0.00 0.00 0.00 25 1018.9
20260904164205 83 110 2.0 3.0 0.00 0.00 0.00 24 1018.9
20260904163704 83 140 0.0 2.0 0.00 0.00 0.00 26 1018.9
20260904163205 82 140 1.0 3.0 0.00 0.00 0.00 26 1018.9
20260904162705 82 154 1.0 5.0 0.00 0.00 0.00 28 1018.9
20260904162205 81 151 2.0 6.0 0.00 0.00 0.00 29 1018.9
20260904161705 81 147 3.0 7.0 0.00 0.00 0.00 29 1018.9
20260904161205 80 153 2.0 5.0 0.00 0.00 0.00 31 1018.9
20260904160704 79 143 1.0 3.0 0.00 0.00 0.00 33 1018.9
20260904160205 79 147 1.0 3.0 0.00 0.00 0.00 35 1018.8
20260904155705 78 144 3.0 5.0 0.00 0.00 0.00 33 1018.8
20260904155205 77 155 2.0 6.0 0.00 0.00 0.00 34 1018.8
20260904154705 76 152 2.0 5.0 0.00 0.00 0.00 37 1018.7
20260904154205 75 154 3.0 6.0 0.00 0.00 0.00 38 1018.7
20260904153204 73 155 2.0 3.0 0.00 0.00 0.00 45 1018.8
20260904152204 70 115 0.0 3.0 0.00 0.00 0.00 50 1018.8
20260904151704 70 115 1.0 3.0 0.00 0.00 0.00 50 1018.8
20260904151205 68 116 1.0 3.0 0.00 0.00 0.00 53 1018.8
20260904150705 67 180 0.0 1.0 0.00 0.00 0.00 53 1018.7
20260904150205 66 180 0.0 2.0 0.00 0.00 0.00 54 1018.7
20260904145705 65 180 2.0 3.0 0.00 0.00 0.00 55 1018.7
20260904145205 65 287 0.0 0.0 0.00 0.00 0.00 60 1018.8
20260904144705 64 287 0.0 1.0 0.00 0.00 0.00 61 1018.8
20260904144205 64 287 0.0 1.0 0.00 0.00 0.00 62 1018.9
20260904143705 63 287 1.0 2.0 0.00 0.00 0.00 63 1018.9
20260904142704 62 287 0.0 0.0 0.00 0.00 0.00 64 1018.9
20260904141705 60 287 0.0 2.0 0.00 0.00 0.00 65 1018.9
20260904141205 59 287 1.0 2.0 0.00 0.00 0.00 65 1018.8
20260904140205 58 287 0.0 0.0 0.00 0.00 0.00 66 1018.7
20260904135704 57 287 0.0 0.0 0.00 0.00 0.00 67 1018.7
20260904135205 57 287 0.0 0.0 0.00 0.00 0.00 70 1018.6
20260904134705 56 287 0.0 0.0 0.00 0.00 0.00 72 1018.5
20260904134205 56 287 0.0 0.0 0.00 0.00 0.00 70 1018.5
20260904133705 55 287 0.0 0.0 0.00 0.00 0.00 70 1018.3
20260904133205 55 287 0.0 0.0 0.00 0.00 0.00 71 1018.3
20260904132705 55 287 0.0 1.0 0.00 0.00 0.00 71 1018.2
20260904132204 54 287 0.0 1.0 0.00 0.00 0.00 71 1018.1
20260904131705 54 287 0.0 1.0 0.00 0.00 0.00 71 1018.1
20260904131205 54 287 0.0 1.0 0.00 0.00 0.00 72 1018.1
20260904130204 54 287 0.0 0.0 0.00 0.00 0.00 71 1018.2
20260904125704 54 287 0.0 0.0 0.00 0.00 0.00 72 1018.2
20260904125205 54 287 0.0 0.0 0.00 0.00 0.00 71 1018.2
20260904124705 54 287 0.0 0.0 0.00 0.00 0.00 71 1018.1
20260904124205 54 287 0.0 0.0 0.00 0.00 0.00 70 1018.0
20260904123205 54 287 0.0 0.0 0.00 0.00 0.00 71 1017.9
20260904122705 55 287 0.0 0.0 0.00 0.00 0.00 70 1017.9
20260904122205 55 287 0.0 0.0 0.00 0.00 0.00 70 1017.9
20260904121705 55 287 0.0 0.0 0.00 0.00 0.00 70 1017.8
20260904121204 55 287 0.0 0.0 0.00 0.00 0.00 70 1017.7
20260904120704 55 287 0.0 0.0 0.00 0.00 0.00 69 1017.7
20260904120204 55 287 0.0 0.0 0.00 0.00 0.00 68 1017.7
20260904115704 55 287 0.0 0.0 0.00 0.00 0.00 68 1017.7
20260904115204 55 287 0.0 0.0 0.00 0.00 0.00 68 1017.7
20260904114705 56 287 0.0 0.0 0.00 0.00 0.00 67 1017.7
20260904113705 56 287 0.0 0.0 0.00 0.00 0.00 67 1017.7
20260904113204 56 287 0.0 0.0 0.00 0.00 0.00 67 1017.7
20260904112705 56 287 0.0 0.0 0.00 0.00 0.00 67 1017.6
20260904112205 56 287 0.0 0.0 0.00 0.00 0.00 66 1017.6
20260904111705 56 287 0.0 0.0 0.00 0.00 0.00 66 1017.5
20260904111204 56 287 0.0 1.0 0.00 0.00 0.00 66 1017.5
20260904110705 56 287 0.0 1.0 0.00 0.00 0.00 65 1017.5
20260904110204 57 287 0.0 0.0 0.00 0.00 0.00 65 1017.4
20260904105704 57 287 0.0 0.0 0.00 0.00 0.00 65 1017.4
20260904105204 57 287 0.0 0.0 0.00 0.00 0.00 64 1017.3
20260904104704 57 287 0.0 0.0 0.00 0.00 0.00 64 1017.3
20260904104204 58 287 0.0 0.0 0.00 0.00 0.00 63 1017.1
20260904103705 58 287 0.0 0.0 0.00 0.00 0.00 62 1017.0
20260904103204 58 287 0.0 0.0 0.00 0.00 0.00 62 1017.0
20260904102705 58 287 0.0 0.0 0.00 0.00 0.00 61 1017.1
20260904102204 58 287 0.0 0.0 0.00 0.00 0.00 60 1017.1
20260904101704 59 287 0.0 0.0 0.00 0.00 0.00 60 1017.0
20260904101204 59 287 0.0 0.0 0.00 0.00 0.00 60 1017.0
20260904100204 59 287 0.0 0.0 0.00 0.00 0.00 59 1017.1
20260904095704 60 287 0.0 0.0 0.00 0.00 0.00 59 1017.1
20260904095204 60 287 0.0 0.0 0.00 0.00 0.00 58 1017.0
20260904094705 60 287 0.0 0.0 0.00 0.00 0.00 58 1016.9
20260904094204 60 287 0.0 1.0 0.00 0.00 0.00 57 1016.8
20260904093705 60 287 0.0 0.0 0.00 0.00 0.00 56 1016.8
20260904093204 61 287 0.0 0.0 0.00 0.00 0.00 56 1016.8
20260904092704 61 287 0.0 0.0 0.00 0.00 0.00 56 1016.8
20260904092204 61 287 0.0 1.0 0.00 0.00 0.00 57 1016.7
20260904091704 61 287 0.0 2.0 0.00 0.00 0.00 56 1016.6
20260904090705 61 287 0.0 0.0 0.00 0.00 0.00 54 1016.5
20260904090204 61 287 0.0 1.0 0.00 0.00 0.00 53 1016.6
20260904085704 61 287 0.0 2.0 0.00 0.00 0.00 53 1016.6
20260904085205 61 287 0.0 1.0 0.00 0.00 0.00 54 1016.6
20260904084704 62 287 0.0 0.0 0.00 0.00 0.00 53 1016.6
20260904084205 62 287 1.0 2.0 0.00 0.00 0.00 54 1016.6
20260904083704 62 287 0.0 0.0 0.00 0.00 0.00 53 1016.5
20260904083204 62 287 0.0 0.0 0.00 0.00 0.00 53 1016.5
20260904082705 63 287 0.0 0.0 0.00 0.00 0.00 52 1016.5
20260904082205 63 287 0.0 0.0 0.00 0.00 0.00 52 1016.4
20260904081204 63 287 0.0 0.0 0.00 0.00 0.00 50 1016.4
20260904080704 64 287 0.0 0.0 0.00 0.00 0.00 50 1016.4
20260904075704 64 287 0.0 0.0 0.00 0.00 0.00 48 1016.3
20260904075204 64 287 0.0 0.0 0.00 0.00 0.00 47 1016.2
20260904074703 65 287 0.0 0.0 0.00 0.00 0.00 47 1016.2
20260904074204 65 287 0.0 0.0 0.00 0.00 0.00 47 1016.3
20260904073704 65 287 0.0 0.0 0.00 0.00 0.00 47 1016.3
20260904073204 65 287 0.0 0.0 0.00 0.00 0.00 47 1016.3
20260904072704 65 287 0.0 1.0 0.00 0.00 0.00 47 1016.4
20260904072204 65 287 0.0 1.0 0.00 0.00 0.00 47 1016.4
20260904071704 65 287 0.0 1.0 0.00 0.00 0.00 46 1016.4
20260904071204 65 287 0.0 1.0 0.00 0.00 0.00 46 1016.4
20260904070704 66 287 0.0 2.0 0.00 0.00 0.00 45 1016.5
20260904070204 66 287 0.0 0.0 0.00 0.00 0.00 46 1016.5
20260904065704 66 287 0.0 1.0 0.00 0.00 0.00 46 1016.5
20260904065204 66 287 1.0 2.0 0.00 0.00 0.00 46 1016.5
20260904064704 66 287 1.0 3.0 0.00 0.00 0.00 45 1016.6
20260904064204 67 186 0.0 1.0 0.00 0.00 0.00 45 1016.6
20260904063704 67 186 0.0 0.0 0.00 0.00 0.00 45 1016.6
20260904063205 67 186 0.0 0.0 0.00 0.00 0.00 44 1016.7
20260904062204 68 186 0.0 0.0 0.00 0.00 0.00 43 1016.7
20260904061704 68 186 0.0 0.0 0.00 0.00 0.00 43 1016.8
20260904060705 69 186 0.0 1.0 0.00 0.00 0.00 42 1016.8
20260904060204 69 186 0.0 0.0 0.00 0.00 0.00 41 1016.8
20260904055704 69 186 0.0 0.0 0.00 0.00 0.00 41 1016.8
20260904055204 69 186 0.0 0.0 0.00 0.00 0.00 41 1016.8
20260904054704 69 186 0.0 1.0 0.00 0.00 0.00 41 1016.8
20260904054204 69 186 0.0 1.0 0.00 0.00 0.00 41 1016.8
20260904053705 69 186 0.0 3.0 0.00 0.00 0.00 41 1016.9
20260904053204 68 178 1.0 8.0 0.00 0.00 0.00 42 1016.9
20260904052204 68 173 0.0 1.0 0.00 0.00 0.00 42 1016.5
20260904051703 68 173 0.0 2.0 0.00 0.00 0.00 43 1016.4
20260904051203 69 173 0.0 1.0 0.00 0.00 0.00 42 1016.4
20260904050704 69 173 0.0 1.0 0.00 0.00 0.00 42 1016.4
20260904050204 69 173 1.0 3.0 0.00 0.00 0.00 42 1016.3
20260904045704 69 331 0.0 1.0 0.00 0.00 0.00 43 1016.4
20260904045204 70 331 0.0 1.0 0.00 0.00 0.00 42 1016.3
20260904044704 70 331 0.0 1.0 0.00 0.00 0.00 42 1016.3
20260904044204 71 331 0.0 1.0 0.00 0.00 0.00 41 1016.3
20260904043704 71 331 0.0 0.0 0.00 0.00 0.00 41 1016.4
20260904043203 71 331 0.0 0.0 0.00 0.00 0.00 41 1016.4
20260904042703 72 331 0.0 0.0 0.00 0.00 0.00 39 1016.4
20260904042204 72 331 0.0 0.0 0.00 0.00 0.00 39 1016.4
20260904041704 72 331 0.0 1.0 0.00 0.00 0.00 38 1016.4
20260904041204 73 331 0.0 1.0 0.00 0.00 0.00 38 1016.3
20260904040204 73 331 0.0 0.0 0.00 0.00 0.00 37 1016.3
20260904035703 74 331 0.0 0.0 0.00 0.00 0.00 36 1016.3
20260904035203 74 331 0.0 2.0 0.00 0.00 0.00 36 1016.2
20260904034704 74 331 0.0 1.0 0.00 0.00 0.00 36 1016.3
20260904034204 75 331 0.0 1.0 0.00 0.00 0.00 35 1016.3
20260904033203 75 331 0.0 1.0 0.00 0.00 0.00 34 1016.0
20260904032705 75 331 0.0 3.0 0.00 0.00 0.00 34 1016.0
20260904032203 75 236 1.0 3.0 0.00 0.00 0.00 35 1016.0
20260904031704 76 294 0.0 2.0 0.00 0.00 0.00 35 1015.9
20260904030204 76 305 0.0 2.0 0.00 0.00 0.00 34 1015.9
20260904025204 77 224 0.0 5.0 0.00 0.00 0.00 32 1015.7
20260904024704 77 252 0.0 3.0 0.00 0.00 0.00 32 1015.7
20260904024205 77 264 1.0 3.0 0.00 0.00 0.00 32 1015.6
20260904023704 77 267 0.0 2.0 0.00 0.05 0.00 31 1015.6
20260904023204 78 267 0.0 3.0 0.00 0.08 0.00 30 1015.6
20260904022704 78 244 0.0 3.0 0.00 0.08 0.00 30 1015.5
20260904022204 78 349 0.0 3.0 0.00 0.08 0.00 30 1015.4
20260904021705 79 291 1.0 3.0 0.00 0.08 0.00 29 1015.3
20260904020706 80 261 2.0 6.0 0.00 0.08 0.00 28 1015.2
20260904020207 80 262 0.0 2.0 0.00 0.08 0.00 27 1015.1
20260904015705 81 262 1.0 2.0 0.00 0.08 0.00 27 1015.1
20260904015206 82 335 0.0 1.0 0.00 0.08 0.00 27 1015.1
20260904014705 82 335 0.0 1.0 0.00 0.08 0.00 26 1015.1
20260904014206 83 22 0.0 3.0 0.00 0.08 0.00 26 1015.1
20260904013705 83 355 2.0 8.0 0.00 0.08 0.00 24 1015.0
20260904013206 83 5 2.0 7.0 0.00 0.08 0.00 24 1015.0
20260904012205 84 22 2.0 5.0 0.00 0.08 0.00 23 1015.1
20260904011705 84 56 1.0 3.0 0.00 0.08 0.00 23 1015.0
20260904005205 86 10 3.0 10.0 0.00 0.08 0.00 21 1015.0
20260904004705 86 32 3.0 8.0 0.00 0.08 0.00 21 1015.0
20260904003705 87 62 4.0 9.0 0.00 0.08 0.00 21 1015.0
20260904003205 88 56 5.0 9.0 0.00 0.08 0.00 21 1015.0
20260904002706 88 59 3.0 9.0 0.00 0.08 0.00 21 1015.0
20260904002206 89 14 3.0 10.0 0.00 0.08 0.00 20 1015.0
20260904001206 90 55 3.0 8.0 0.00 0.08 0.00 19 1015.0
20260904000205 91 14 1.0 3.0 0.00 0.08 0.00 20 1014.8
20260903235705 91 130 1.0 3.0 0.00 0.08 0.00 20 1014.9
20260903235205 91 115 1.0 7.0 0.00 0.08 0.00 20 1014.9
20260903234706 91 106 0.0 6.0 0.00 0.08 0.00 22 1014.9
20260903234205 91 136 1.0 3.0 0.00 0.08 0.00 19 1014.9
20260903233705 91 26 1.0 3.0 0.00 0.08 0.00 22 1014.9
20260903233205 91 136 0.0 3.0 0.00 0.08 0.00 20 1014.9
20260903232706 91 131 1.0 3.0 0.00 0.08 0.00 19 1014.9
20260903232205 91 71 2.0 6.0 0.00 0.08 0.00 20 1014.9
20260903231705 91 23 3.0 8.0 0.00 0.08 0.00 18 1014.9
20260903231205 92 43 2.0 3.0 0.00 0.08 0.00 18 1014.9
20260903230705 92 41 1.0 5.0 0.00 0.08 0.00 18 1014.9
20260903225706 91 92 1.0 3.0 0.00 0.08 0.00 18 1014.9
20260903225205 91 60 3.0 7.0 0.00 0.08 0.00 18 1014.9
20260903224705 91 72 1.0 9.0 0.00 0.08 0.00 20 1014.9
20260903223705 91 135 1.0 3.0 0.00 0.08 0.00 21 1015.0
20260903223205 91 46 2.0 8.0 0.00 0.08 0.00 20 1015.0
20260903222705 91 112 2.0 5.0 0.00 0.08 0.00 19 1015.1
20260903221206 91 9 1.0 5.0 0.00 0.08 0.00 21 1015.2
20260903220706 91 39 2.0 8.0 0.00 0.08 0.00 19 1015.3
20260903220206 91 61 1.0 3.0 0.00 0.08 0.00 18 1015.3
20260903215705 91 89 1.0 5.0 0.00 0.08 0.00 20 1015.4
20260903214705 91 42 3.0 8.0 0.00 0.08 0.00 19 1015.4
20260903214205 91 38 2.0 7.0 0.00 0.08 0.00 19 1015.5
20260903213706 91 65 2.0 5.0 0.00 0.08 0.00 19 1015.6
20260903212706 91 67 2.0 9.0 0.00 0.08 0.00 20 1015.6
20260903211705 91 147 2.0 5.0 0.00 0.08 0.00 21 1015.7
20260903210706 90 51 2.0 9.0 0.00 0.08 0.00 19 1015.8
20260903210205 91 107 2.0 6.0 0.00 0.08 0.00 21 1015.9
20260903204205 90 28 2.0 6.0 0.00 0.08 0.00 20 1016.1
20260903203705 90 118 2.0 12.0 0.00 0.08 0.00 21 1016.2
20260903203205 90 97 0.0 3.0 0.00 0.08 0.00 25 1016.3
20260903202205 89 78 2.0 5.0 0.00 0.08 0.00 22 1016.4
20260903201205 89 38 2.0 7.0 0.00 0.08 0.00 24 1016.4
20260903200705 89 5 3.0 9.0 0.00 0.08 0.00 23 1016.4
20260903200205 88 61 2.0 5.0 0.00 0.08 0.00 23 1016.4
20260903195705 88 86 2.0 6.0 0.00 0.08 0.00 23 1016.5
20260903195205 88 117 3.0 9.0 0.00 0.08 0.00 22 1016.5
20260903194705 88 53 3.0 10.0 0.00 0.08 0.00 22 1016.6
20260903194206 88 42 2.0 6.0 0.00 0.08 0.00 22 1016.6
20260903193705 88 106 2.0 7.0 0.00 0.08 0.00 24 1016.6
20260903193205 88 36 3.0 6.0 0.00 0.08 0.00 22 1016.7
20260903192705 88 118 1.0 3.0 0.00 0.08 0.00 23 1016.8
20260903192205 88 72 0.0 3.0 0.00 0.08 0.00 24 1016.9
20260903191706 87 76 1.0 3.0 0.00 0.08 0.00 23 1017.0
20260903191205 87 77 1.0 7.0 0.00 0.08 0.00 23 1017.1
20260903190705 87 49 2.0 9.0 0.00 0.08 0.00 23 1017.1
20260903185705 88 103 2.0 3.0 0.00 0.08 0.00 23 1017.2
20260903184705 87 157 0.0 3.0 0.00 0.08 0.00 26 1017.3
20260903184205 87 126 0.0 3.0 0.00 0.08 0.00 24 1017.4
20260903183705 87 102 2.0 6.0 0.00 0.08 0.00 24 1017.5
20260903183205 87 151 3.0 6.0 0.00 0.08 0.00 24 1017.6
20260903182205 86 168 2.0 7.0 0.00 0.08 0.00 26 1017.7
20260903181704 86 124 1.0 5.0 0.00 0.08 0.00 26 1017.8
20260903180705 85 341 1.0 3.0 0.00 0.08 0.00 26 1017.8